Regional Weather Roundup
Issued by NWS

Home | Current Version | Previous Version | Graphics & Text | Print | Product List | Glossary On
Versions: 1 2 3 4 5 6 7 8 9 10 11 12 13 14 15 16 17 18 19 20 21 22 23 24 25 26 27 28 29 30 31 32 33 34 35 36 37 38 39 40 41 42 43 44 45 46 47 48 49 50
000
ASUS43 KIND 271259
RWRIN

WEATHER ROUNDUP FOR INDIANA
NATIONAL WEATHER SERVICE INDIANAPOLIS IN
900 AM EDT WED JUL 27 2016

NOTE: "FAIR" INDICATES FEW OR NO CLOUDS BELOW 12,000 FEET WITH NO
SIGNIFICANT WEATHER AND/OR OBSTRUCTIONS TO VISIBILITY.

* - STATION DOES NOT REPORT WEATHER SUCH AS PRECIPITATION OR FOG.

+ - STATION NOT QUALITY CONTROLLED BY THE NATIONAL WEATHER SERVICE.
    USE DATA WITH CAUTION...ESPECIALLY DEWPOINT AND RELATIVE
    HUMIDITY OBSERVATIONS.

INZ001>003-010>013-019-020-271400-
NORTHWEST INDIANA

CITY           SKY/WX    TMP DP  RH WIND       PRES   REMARKS
GARY /AIRPORT/ MOSUNNY   77  72  83 W5        30.03S
KNOX *+        SUNNY     70  63  78 CALM      30.03F
MONTICELLO +   SUNNY     72  67  83 CALM      30.04S
RENSSELAER +   SUNNY     72  70  94 CALM      30.05S

$$

LMZ046-743>745-271400-
SOUTHERN LAKE MICHIGAN

STATION/POSITION TIME  TEMP    WIND        PRES    WAVE
                       AIR SEA DIR/SP/G            HT
                 (UTC) (F)     (DEG/KT/KT) (MB)    (FT)
BURNS HARBOR     1203   72     200/  4/  7 1017.3S
MICHIGAN CITY    1200   72     180/  5/  6   N/A
5NW MICH CITY    1200   74 75  230/  6/  8   N/A     1

$$

INZ004-005-014>016-021>024-271400-
NORTH CENTRAL INDIANA

CITY           SKY/WX    TMP DP  RH WIND       PRES   REMARKS
GOSHEN         SUNNY     72  66  81 CALM      30.05S
SOUTH BEND     SUNNY     73  67  81 SE3       30.05R
WARSAW +       SUNNY     72  64  78 CALM      30.05S

$$

INZ006>009-017-018-025>027-271400-
NORTHEAST INDIANA

CITY           SKY/WX    TMP DP  RH WIND       PRES   REMARKS
ANGOLA *+        N/A     73  66  78 CALM      30.05S
FORT WAYNE     MOSUNNY   73  65  75 CALM      30.05R

$$

INZ028-029-035-036-043>045-051>053-271400-
WEST CENTRAL INDIANA

CITY           SKY/WX    TMP DP  RH WIND       PRES   REMARKS
CRAWFORDSVL +  SUNNY     72  70  93 CALM      30.05F
GREENCASTLE +  CLOUDY    72  70  94 CALM      30.06S
LAFAYETTE      SUNNY     71  69  93 CALM      30.04S
TERRE HAUTE    CLOUDY    73  69  87 CALM      30.04S

$$

INZ030>032-037>040-046>048-054>057-064-065-271400-
CENTRAL INDIANA

CITY           SKY/WX    TMP DP  RH WIND       PRES   REMARKS
ANDERSON       SUNNY     73  66  78 CALM      30.04
COLUMBUS       MOSUNNY   72  72 100 N5        30.04R
INDIANAPOLIS   MOSUNNY   77  67  71 CALM      30.05S
-EAGLE CREEK   SUNNY     77  66  68 N3        30.04S
KOKOMO *+      SUNNY     73  64  73 CALM      30.05S
SHELBYVILLE    CLOUDY    76  68  76 N3        30.04R

$$

INZ033-034-041-042-049-050-058-059-271400-
EAST CENTRAL INDIANA

CITY           SKY/WX    TMP DP  RH WIND       PRES   REMARKS
MUNCIE         SUNNY     76  68  76 CALM      30.05S

$$

INZ060-061-067>069-081>083-085>088-271400-
SOUTHWEST INDIANA

CITY           SKY/WX    TMP DP  RH WIND       PRES   REMARKS
EVANSVILLE     CLOUDY    78  75  90 CALM      30.00F FOG
HUNTINGBURG *+ CLOUDY    75  72  88 N3        30.01F

$$

INZ062-063-066-070>080-084-089>092-271400-
SOUTH CENTRAL AND SOUTHEAST INDIANA

CITY           SKY/WX    TMP DP  RH WIND       PRES   REMARKS
BLOOMINGTON    CLOUDY    75  68  78 CALM      30.04S
MADISON *+     CLOUDY    73  73 100 CALM      30.05S

$$





USA.gov is the U.S. government's official web portal to all federal, state and local government web resources and services.